Regional Weather Roundup
Issued by NWS Green Bay, WI

Home | Current Version | Previous Version | Text Only | Print | Product List | Glossary On
Versions: 1 2 3 4 5 6 7 8 9 10 11 12 13 14 15 16 17 18 19 20 21 22 23 24 25 26 27 28 29 30 31 32 33 34 35 36 37 38 39 40 41 42 43 44 45 46 47 48 49 50
000
ASUS43 KGRB 290310
RWRGRB

NORTH-CENTRAL AND NORTHEAST WISCONSIN REGIONAL WEATHER ROUNDUP
NATIONAL WEATHER SERVICE GREEN BAY WI
1000 PM CDT SAT MAR 28 2015

WIZ005-009-010>012-018-019-290400-
NORTH CENTRAL WISCONSIN

CITY           SKY/WX    TMP DP  RH WIND       PRES   REMARKS
IRONWOOD       MOCLDY    36  12  38 S9        29.97F
MANITOWISH WTR MOCLDY    30  12  46 S7        30.02F
ARBOR VITAE    MOCLDY    32  12  44 S9        30.04S
EAGLE RIVER    PTCLDY    31   8  38 S6        30.04F
LAND O LAKES   PTCLDY    32  11  41 S7        30.03F
RHINELANDER    MOCLDY    32  11  41 SW10      30.07F
PHILLIPS       MOCLDY    32  12  43 CALM      30.04F
ANTIGO         PTCLDY    31  15  51 SW12      30.10F
TOMAHAWK       MOCLDY    32  13  46 CALM      30.08S
MERRILL        MOCLDY    33  14  45 SW9G16    30.10F
$$

WIZ013-073-290400-
NORTHEAST WISCONSIN

CITY           SKY/WX    TMP DP  RH WIND       PRES   REMARKS
IRON MOUNTAIN  MOCLDY    31  10  41 S7        30.08F
MARINETTE      MOCLDY    28  21  74 SW9       30.16F
OCONTO           N/A     30  23  76 S8        30.17F
$$

WIZ017-030-035>037-045-290400-
CENTRAL WISCONSIN

CITY           SKY/WX    TMP DP  RH WIND       PRES   REMARKS
MEDFORD        MOCLDY    31  16  53 S9        30.09F
WAUSAU         PTCLDY    33  13  43 SW12      30.10F
MOSINEE        CLEAR     28  14  54 S7        30.14S
MARSHFIELD     CLEAR     31  13  47 SW9       30.13S
WISC RAPIDS    CLEAR     30  10  43 S8        30.17S
STEVENS POINT  CLEAR     30  11  45 S10       30.16S
WAUPACA        CLEAR     31  14  49 S6        30.19S
SHAWANO        CLEAR     34  15  45 SW5       30.16S
CLINTONVILLE   CLEAR     32  16  51 S9        30.17R
$$

WIZ038-039-048-051-290400-
FOX VALLEY

CITY           SKY/WX    TMP DP  RH WIND       PRES   REMARKS
NWS GREEN BAY  PTCLDY    30  22  72 S12       30.19F
APPLETON       PTCLDY    30  12  47 SW12      30.19S
OSHKOSH        CLEAR     29  15  56 SW8       30.20S
FOND DU LAC    CLEAR     28  16  60 S6        30.21S
$$

WIZ022-050-052-290400-
EAST CENTRAL WISCONSIN

CITY           SKY/WX    TMP DP  RH WIND       PRES   REMARKS
STURGEON BAY   PTCLDY    28  18  64 S14       30.20F
MANITOWOC      CLEAR     28  21  75 S9        30.23F
SHEBOYGAN      CLEAR     25  19  78 S8        30.23F
$$

LMZ563-521-522-541>543-290400-
LAKESHORE

STATION/POSITION TIME  TEMP    WIND        PRES    VSBY  WAVE
                       AIR SEA DIR/SP/G                  HT/PER
                 (UTC) (F)     (DEG/KT/KT) (MB)    (MI)  (FT/S)
SHEBOYGAN LKSHOR 0300   31     190/ 20/ 23 1024.7F
KEWAUNEE LKSHORE 0300   30     200/ 14/ 17 1022.4R
NORTHPORT PIER   0300   30     160/  6/ 16 1022.0S
CHAMBERS ISLAND  0300   28     160/  7/ 15 1022.0S
MENOMINEE LKSHOR 0300   30     160/ 13     1022.2F
$$



USA.gov is the U.S. government's official web portal to all federal, state and local government web resources and services.